AU224 Weather Reports


Display with metric or nautical units.
time (UTC)temp
F
wind
direction
speed
MPH
gust
MPH
rain 1hr
in
rain 24hr
in
rain mn
in
humidity
%
barometer
mb
20260901213056 58 0 0.0 0.0 0.00 0.00 0.00 74 1019.5
20260901211553 58 0 0.0 0.0 0.00 0.00 0.00 73 1019.6
20260901210115 59 0 0.0 0.0 0.00 0.00 0.00 73 1019.6
20260901204558 59 0 0.0 0.0 0.00 0.00 0.00 72 1019.5
20260901203052 59 0 0.0 0.0 0.00 0.00 0.00 72 1019.5
20260901201549 60 0 0.0 0.0 0.00 0.00 0.00 71 1019.5
20260901200057 61 0 0.0 0.0 0.00 0.00 0.00 70 1019.4
20260901194546 61 0 0.0 0.0 0.00 0.00 0.00 69 1019.3
20260901193103 62 0 0.0 0.0 0.00 0.00 0.00 68 1019.1
20260901191608 62 0 0.0 0.0 0.00 0.00 0.00 67 1019.2
20260901190120 63 0 0.0 0.0 0.00 0.00 0.00 66 1019.1
20260901184552 64 0 0.0 0.0 0.00 0.00 0.00 64 1018.9
20260901183050 65 0 0.0 0.0 0.00 0.00 0.00 62 1018.7
20260901181546 66 0 0.0 0.0 0.00 0.00 0.00 60 1018.6
20260901180054 67 0 0.0 0.0 0.00 0.00 0.00 59 1018.6
20260901174555 68 0 0.0 0.0 0.00 0.00 0.00 57 1018.5
20260901173047 68 0 0.0 0.0 0.00 0.00 0.00 56 1018.4
20260901171627 68 0 0.0 0.0 0.00 0.00 0.00 57 1018.3
20260901170105 69 0 0.0 1.0 0.00 0.00 0.00 54 1018.4
20260901164609 69 0 0.0 4.0 0.00 0.00 0.00 54 1018.4
20260901163109 71 0 0.0 4.0 0.00 0.00 0.00 51 1018.5
20260901161603 72 352 0.0 4.0 0.00 0.00 0.00 51 1018.5
20260901160053 70 0 0.0 3.0 0.00 0.00 0.00 53 1018.3
20260901154557 73 291 1.0 8.0 0.00 0.00 0.00 50 1018.3
20260901153052 72 9 0.0 8.0 0.00 0.00 0.00 52 1018.3
20260901151550 73 304 3.0 9.0 0.00 0.00 0.00 49 1018.3
20260901144606 73 0 1.0 11.0 0.00 0.00 0.00 49 1018.3
20260901143055 73 291 1.0 8.0 0.00 0.00 0.00 48 1018.4
20260901141552 72 315 2.0 8.0 0.00 0.00 0.00 52 1018.4
20260901134602 72 0 4.0 12.0 0.00 0.00 0.00 50 1018.5
20260901133103 74 360 3.0 11.0 0.00 0.00 0.00 48 1018.6
20260901131554 73 187 1.0 11.0 0.00 0.00 0.00 49 1018.8
20260901130046 72 280 11.0 0.0 0.00 0.00 0.00 52 1019.0
20260901124554 72 360 8.0 0.0 0.00 0.00 0.00 50 1019.1
20260901123054 70 0 0.0 10.0 0.00 0.00 0.00 56 1019.1
20260901121554 70 277 2.0 10.0 0.00 0.00 0.00 55 1019.2
20260901120057 72 0 0.0 10.0 0.00 0.00 0.00 52 1019.1
20260901114555 72 0 0.0 11.0 0.00 0.00 0.00 53 1019.2
20260901113054 70 360 5.0 12.0 0.00 0.00 0.00 54 1019.3
20260901111557 70 279 3.0 10.0 0.00 0.00 0.00 55 1019.4
20260901110059 70 274 8.0 0.0 0.00 0.00 0.00 54 1019.4
20260901104557 72 235 1.0 9.0 0.00 0.00 0.00 51 1019.2
20260901103049 71 360 0.0 9.0 0.00 0.00 0.00 53 1019.3
20260901101550 68 0 1.0 1.0 0.00 0.00 0.00 59 1019.5
20260901100059 70 271 4.0 8.0 0.00 0.00 0.00 55 1019.6
20260901094551 71 288 5.0 0.0 0.00 0.00 0.00 54 1019.6
20260901093047 69 281 2.0 11.0 0.00 0.00 0.00 56 1019.6
20260901091603 68 0 0.0 0.0 0.00 0.00 0.00 57 1019.6
20260901090059 67 272 2.0 9.0 0.00 0.00 0.00 57 1019.6
20260901084550 67 272 0.0 9.0 0.00 0.00 0.00 62 1019.6
20260901083057 67 0 0.0 4.0 0.00 0.00 0.00 59 1019.6
20260901081556 66 0 0.0 3.0 0.00 0.00 0.00 62 1019.5
20260901080104 66 0 0.0 5.0 0.00 0.00 0.00 64 1019.5
20260901074553 65 0 0.0 2.0 0.00 0.00 0.00 65 1019.5
20260901073052 64 0 0.0 0.0 0.00 0.00 0.00 68 1019.4
20260901071605 62 0 0.0 0.0 0.00 0.00 0.00 69 1019.3
20260901064608 59 0 0.0 0.0 0.00 0.00 0.00 75 1019.3
20260901063100 57 0 0.0 0.0 0.00 0.00 0.00 77 1019.3
20260901061601 56 0 0.0 0.0 0.00 0.00 0.00 77 1019.3
20260901060051 55 0 0.0 0.0 0.00 0.00 0.00 81 1019.3
20260901054556 52 0 0.0 0.0 0.00 0.00 0.00 82 1019.3
20260901053114 51 0 0.0 0.0 0.00 0.00 0.00 81 1019.2
20260901051555 51 0 0.0 0.0 0.00 0.00 0.00 81 1019.2
20260901050048 51 0 0.0 0.0 0.00 0.00 0.00 80 1019.2
20260901044556 51 0 0.0 0.0 0.00 0.00 0.00 78 1019.2
20260901043055 51 0 0.0 0.0 0.00 0.00 0.00 78 1019.1
20260901041553 51 0 0.0 0.0 0.00 0.00 0.00 77 1019.1
20260901040104 51 0 0.0 0.0 0.00 0.00 0.00 76 1019.2
20260901034558 51 0 0.0 0.0 0.00 0.00 0.00 76 1019.1
20260901033055 52 0 0.0 0.0 0.00 0.00 0.00 75 1019.1
20260901031554 52 0 0.0 0.0 0.00 0.00 0.00 75 1019.0
20260901030048 52 0 0.0 0.0 0.00 0.00 0.00 75 1019.2
20260901024602 52 0 0.0 0.0 0.00 0.12 0.00 74 1019.2
20260901023057 52 0 0.0 0.0 0.00 0.12 0.00 72 1019.2
20260901021557 53 0 0.0 0.0 0.00 0.12 0.00 72 1019.2
20260901020053 53 0 0.0 0.0 0.00 0.12 0.00 71 1019.1
20260901014552 54 0 0.0 0.0 0.00 0.12 0.00 71 1019.1
20260901013104 54 0 0.0 0.0 0.00 0.12 0.00 70 1019.0
20260901011554 55 0 0.0 0.0 0.00 0.12 0.00 69 1018.8
20260901010056 55 0 0.0 0.0 0.00 0.12 0.00 68 1018.8
20260901004603 56 0 0.0 0.0 0.00 0.12 0.00 68 1018.7
20260901003106 56 0 0.0 0.0 0.00 0.12 0.00 68 1018.8
20260901001555 57 0 0.0 0.0 0.00 0.12 0.00 66 1018.7
20260901000053 57 0 0.0 0.0 0.00 0.12 0.00 66 1018.6
20260831234547 58 0 0.0 0.0 0.00 0.12 0.00 66 1018.5
20260831233058 58 0 0.0 0.0 0.00 0.12 0.00 65 1018.7
20260831231612 59 0 0.0 0.0 0.00 0.12 0.00 65 1018.8
20260831230051 59 0 0.0 0.0 0.00 0.12 0.00 65 1018.9
20260831224555 59 0 0.0 0.0 0.00 0.12 0.00 64 1018.9
20260831223101 59 0 0.0 0.0 0.00 0.12 0.00 64 1018.9
20260831221547 60 0 0.0 0.0 0.00 0.12 0.00 62 1018.9
20260831220055 61 0 0.0 0.0 0.00 0.12 0.00 60 1019.0
20260831214555 61 0 0.0 0.0 0.00 0.12 0.12 59 1018.9